STARLINK-35134, 65641

Orbit data source: Space-Track

STARLINK-35134, 65641 is a payload satellite owned by SpaceX/Seattle (US) in LEO that was launched on Thu, 18 Sep 2025 UTC via an FALCON 9 launch vehicle from the Air Force Eastern Test Range (AFETR). Payload-class satellites include a variety of spacecraft equipped with specific instruments for various scientific and technological missions. These include communications satellites like Starlink; space stations such as the ISS; scientific satellites like the Hubble; Earth observation satellites from companies like Planet Labs, Umbra, and HawkEye 360; GPS; miniature CubeSats for education and research; and military/defense satellites.

Loading next visibility...
Identifier
65641, 2025-210V
Orbit
LEO
Country
Flag of USUS
Related business
Manufacturer
SpaceX/Seattle
Mission
Operational Commercial Communications
Bus & Motor
STARLINK V2MO, Unknown motor
Mass
575 kg wet, ~530 kg dry
Launch date (UTC)
2025-09-18 (9 months ago)
Launch vehicle
FALCON 9
Launch site
Air Force Eastern Test Range (AFETR)
Object type
Payload
Rocket body
Debris
Shape & HBR
Box + 2 Pan, 17.7 m
Radar Cross Section
36.964 m², Large (>1 m²)

Expand to show TLE details & history
Last TLE update: 12 hours ago

TLE from 12 hours ago
0 STARLINK-35134
1 65641U 25210V   26171.33742080  .00013981  00000-0  42397-3 0  9996
2 65641  53.1575 188.3954 0001105  86.6917 273.4212 15.34412853 43477
Epoch: 2026-06-20T08:05Z
TLE epoch observation values (Epoch: 2026-06-20T08:05:53.157Z)
Latitude
Longitude
158.37042°
Altitude
463.521 km
Speed
7.636 km/s
True Right ascension
12h 33m 34s
True Declination
0° 00' 00"
Sunlit
Object was in daylight at epoch
Visualization orbit readout
Latitude
Unknown
Longitude
Unknown
Altitude
Unknown
Speed
Unknown
Apparent Right ascension
Unknown
Apparent Declination
Unknown
Sunlit
N/A
Visualization observer readout
Local Sidereal Time
07:11:34
Azimuth
Unknown
Elevation
Unknown
Doppler factor
Unknown
Orbital elements
Apogee altitude
463.678 km
Perigee altitude
462.166 km
Semi-major axis
6,841.059 km
Eccentricity
0.00011
Inclination
53.1575°
RAAN
188.3954°
Arg. of periapsis
86.6917°
True anomaly
273.40856°
Mean anomaly
273.4212°
Eccentric anomaly
273.41488°
Mean motion
3.83582 °/min
Orbital period
93.85 mins
BSTAR
0.00042397
Loading maneuver chart data...
Computing Atmospheric mass density...
Loading historical data...
Loading historical data...
Loading historical data...
Loading historical data...
Loading historical data...
Loading historical data...
Loading historical data...

Documentation

Showing up to 5 results
|